User: anonymous   Login
Location: Fort Wayne
(41.1310°N, 85.1290°W)
Time: 21:15:16
(UTC-05:00)
Language:

Meteor 2-10 Rocket - Orbit

View from above orbital plane
View from above orbital plane
View from above satellite
View from above satellite

Ground track
Ground track

The orbit data is extracted from the following two-line orbital elements,

1 14453U 83109B   14324.18485477  .00000195  00000-0  74689-4 0  2846
2 14453 081.1657 331.8679 0103974 262.6726 153.1031 14.24537736613690
Epoch (UTC): 20 November 2014 04:26:11
Eccentricity: 0.0103974
inclination: 81.1657°
perigee height: 735 km
apogee height: 885 km
right ascension of ascending node: 331.8679°
argument of perigee: 262.6726°
revolutions per day: 14.24537736
mean anomaly at epoch: 153.1031°
orbit number at epoch: 61369

The dashed part of the orbit path shows where the satellite is in the earth's shadow,  

DLR